Regional Weather Roundup
Issued by NWS Newport/Morehead, NC

Current Version | Previous Version | Text Only | Print | Product List | Glossary On
Versions: 1 2 3 4 5 6 7 8 9 10 11 12 13 14 15 16 17 18 19 20 21 22 23 24 25 26 27 28 29 30 31 32 33 34 35 36 37 38 39 40 41 42 43 44 45 46 47 48 49 50
000 ASUS42 KMHX 070924 RWRMHX WEATHER ROUNDUP FOR EASTERN NORTH CAROLINA NATIONAL WEATHER SERVICE NEWPORT/MOREHEAD CITY NC 400 AM EST WED DEC 07 2016 NOTE: "FAIR" INDICATES FEW OR NO CLOUDS BELOW 12,000 FEET WITH NO SIGNIFICANT WEATHER AND/OR OBSTRUCTIONS TO VISIBILITY NCZ015>017-031-032-045>047-102-103-071000- NORTH COAST CITY SKY/WX TMP DP RH WIND PRES REMARKS EDENTON CLOUDY 47 44 90 NW10G17 29.90R ELIZABETH CITY CLOUDY 46 45 96 NW12 29.86R KITTY HAWK CLOUDY 47 47 100 NW8G22 29.82R MANTEO CLOUDY 47 46 95 NW14G21 29.85R $$ NCZ045>047-081-094-103-104-071000- CENTRAL COAST CITY SKY/WX TMP DP RH WIND PRES REMARKS FRISCO CLOUDY 48 46 93 NW10G22 29.83S $$ NCZ095-097-098-100-101-071000- SOUTHERN COAST CITY SKY/WX TMP DP RH WIND PRES REMARKS BEAUFORT CLOUDY 47 44 90 NW9 29.89R CEDAR ISLAND NOT AVBL JACKSONVILLE NOT AVBL PINEY ISLAND CLOUDY N/A N/A N/A NW15G24 29.86 WILMINGTON MOCLDY 46 45 96 NW12 29.93R $$ NCZ011>013-027>030-043-044-078>080-089-090>093-098-071000- COASTAL PLAIN CITY SKY/WX TMP DP RH WIND PRES REMARKS AHOSKIE CLOUDY 43 42 97 CALM 29.92R CLINTON CLOUDY 44 42 95 NW7 29.95R ELIZABETHTOWN CLOUDY 45 44 96 NW5 29.96R GOLDSBORO CLOUDY 45 45 100 NW6 29.92R GREENVILLE CLOUDY 45 43 93 NW8 29.95R HAVELOCK CLOUDY 46 43 89 NW13 29.89R KENANSVILLE CLOUDY 43 43 100 NW9 29.94R KINSTON N/A 45 43 93 NW7 29.94R NEW BERN CLOUDY 45 42 89 NW9 29.91R RICHLANDS CLOUDY 45 43 93 VRB6 29.93R ROCKY MOUNT CLOUDY 44 43 96 W8 29.94R WASHINGTON CLOUDY 44 42 93 NW8G16 29.92R WHITEVILLE CLOUDY 47 45 91 CALM 29.95R $$ AMZ130-135-150-152-154-156-158-170-250-252-270-ANZ085-086-088-633-658-670-071000- MARINE OBSERVATIONS STATION/POSITION TIME TEMP WIND PRES WAVE SWELL AIR SEA DIR/SP/G HT/PER HT/PER (UTC) (F) (DEG/KT/KT) (MB) (FT/S) (FT/S) CHESAPEAKE LIGHT NOT AVBL 64 E VA BEACH 0850 54 59 320/ 27/ 31 1006.2 11/ 7 5/10 DUCK 0900 48 55 300/ 16/ 21 1009.6 2 E DUCK NOT AVBL OREGON INLET 0900 48 56 300/ 14/ 21 1009.8 13E OREGON INLT NOT AVBL HATTERAS CG 0900 49 61 310/ 22/ 26 1009.9 DIAMOND BUOY 0850 56 74 330/ 23/ 29 1009.4 8/ 9 5/ 9 CAPE LOOKOUT 0900 48 310/ 17/ 20 1011.3 BEAUFORT LAB 0900 46 56 320/ 7/ 12 1011.0 30 SE NEW RVR IN 0808 51 70 320/ 19/ 25 1011.5 30 SE NEW RVR IN NOT AVBL 27 SE WRIGHTSVLE 0808 55 67 300/ 17/ 25 1011.6 5 SE WRIGHTSVLE 0808 48 61 310/ 14/ 21 1012.2 225 S CAPE HAT 0850 73 74 320/ 19/ 23 1010.5 11/ 9 8/ 9 41 SE CHARLESTON 0850 59 74 320/ 12/ 14 1013.4 4/ 8 3/ 8 $$

USA.gov is the U.S. government's official web portal to all federal, state and local government web resources and services.